Lid_Strength_Index
13 13 13 12 12 13 14 14 13 12 11 11 8 6 7 6 5 5 6 6 7 8 8 9 9 9 11 11 11 11 10 8 8 13 12 12 11 11 12 10 10 10 9
13 13 13 13 13 13 13 13 13 13 12 12 10 7 8 8 7 7 7 7 7 8 9 10 9 9 10 10 10 11 11 11 9 11 12 13 12 11 11 11 10 9 10
14 14 14 14 14 13 13 13 13 14 14 13 13 11 10 9 9 8 8 8 7 8 9 10 10 10 11 11 11 10 10 13 10 11 13 12 13 12 12 11 10 10 11
14 15 15 15 15 14 14 13 13 14 15 15 14 13 12 12 11 10 9 8 7 7 8 8 9 9 9 11 12 12 12 13 11 11 12 13 13 13 12 12 12 11 11
14 15 16 16 16 15 15 15 14 14 15 15 15 16 15 13 12 12 11 10 9 8 7 8 8 10 11 11 11 12 12 12 13 13 13 14 15 15 14 11 11 12 14
14 15 16 16 16 16 16 16 16 15 15 15 15 16 16 15 12 12 11 11 11 10 9 9 8 11 11 10 11 11 11 11 12 12 13 14 14 13 12 13 12 14 14
14 14 16 17 17 17 16 17 18 18 17 16 15 15 16 16 13 13 13 12 12 12 12 11 11 11 11 9 10 11 11 11 11 11 13 13 14 13 14 15 14 13 12
15 15 15 17 18 18 17 18 18 18 19 18 17 15 15 15 14 13 13 14 13 13 13 13 13 13 12 13 13 13 13 13 12 12 11 11 11 13 12 13 14 16 18
16 16 16 16 18 19 19 18 18 18 19 19 18 17 16 16 14 13 13 14 15 14 14 13 13 13 13 12 13 13 13 13 12 12 12 11 12 12 14 14 14 14 15
16 17 17 17 18 19 19 19 18 18 18 18 18 17 17 17 16 13 13 14 15 15 15 15 14 14 13 13 13 13 13 13 13 15 14 13 13 13 14 13 13 13 14
17 18 18 18 18 17 18 19 20 20 19 19 18 17 17 18 18 15 14 15 15 15 15 15 15 14 13 12 12 13 13 12 11 13 14 14 14 14 14 14 14 12 13
18 18 19 19 19 18 18 19 21 21 21 20 19 18 17 17 18 17 16 15 15 16 16 15 14 14 13 11 12 11 12 12 12 13 13 15 15 15 15 16 17 17 16
20 21 21 20 20 19 20 20 20 21 21 21 20 20 19 17 18 17 17 16 17 17 16 15 15 14 13 12 11 10 12 12 12 12 13 14 14 15 19 20 19 20 19
21 21 21 21 21 20 20 19 20 20 21 21 21 20 20 19 18 17 17 17 16 17 17 16 16 15 13 12 13 12 12 12 12 12 11 12 16 18 19 19 20 19 19
21 21 20 20 21 21 20 20 20 19 19 20 20 20 20 21 19 17 17 17 16 16 16 17 18 16 15 14 13 14 13 12 13 12 12 14 15 17 18 19 19 19 17
21 20 20 21 21 21 21 21 19 19 18 17 17 18 20 18 18 18 17 16 16 16 17 18 19 18 17 17 16 14 14 14 13 12 13 13 14 15 17 18 19 18 17
22 21 21 22 21 22 22 23 23 21 19 19 19 18 19 19 19 19 18 17 17 17 20 20 20 19 18 18 18 18 16 14 14 14 14 13 14 14 16 17 18 17 17
24 24 23 22 22 22 22 23 23 24 24 23 21 21 19 19 20 20 19 19 23 23 22 22 21 20 21 20 20 20 19 18 14 14 15 14 14 14 15 16 16 16 16
23 22 22 22 22 23 24 24 24 24 25 24 23 22 22 21 20 20 21 25 26 25 24 24 23 23 22 22 22 22 21 19 19 14 14 15 15 15 15 15 15 15 16
24 26 25 23 23 24 24 25 25 25 25 25 24 24 23 24 24 22 23 24 26 26 26 25 24 24 24 24 23 23 22 21 20 19 13 14 15 15 15 15 15 16 17
22 22 24 25 24 24 24 25 25 25 25 25 24 23 20 21 21 21 22 23 25 26 26 26 26 25 25 25 24 24 23 22 21 19 19 13 14 15 15 15 14 15 16
22 23 23 24 24 24 24 24 24 25 25 25 24 23 21 23 23 23 23 23 23 24 25 27 27 26 26 26 25 25 24 23 22 19 20 20 14 14 14 15 16 15 15
22 23 23 23 24 25 25 24 24 24 24 24 24 24 24 24 24 24 24 24 24 24 24 25 27 28 27 27 26 25 25 24 22 23 23 22 21 16 14 14 15 15 16
23 23 24 24 24 24 24 24 24 24 25 24 24 23 23 23 23 23 24 24 24 24 24 25 25 27 27 27 27 25 24 24 24 24 24 24 23 21 18 14 14 15 16
24 25 25 25 24 24 24 24 24 24 24 24 23 23 23 23 24 24 23 24 24 25 25 25 25 25 26 27 28 27 26 26 26 26 26 25 24 23 22 19 14 15 16
23 24 24 24 24 24 24 24 24 23 23 23 23 23 23 23 23 23 24 24 25 26 26 25 25 25 25 25 26 27 27 26 26 26 26 25 25 23 22 20 15 15 15